Flag for Pakistan Weather past 2 weeks in Lahore, Pakistan

Now
95 °F

Broken clouds.


Feels Like: 110 °F
Forecast: 76 / 94 °F
Wind: 3 mph from South

Location: Lahore Airport

Current Time: Sep 19, 2014 at 1:57:51 PM

Latest Report: Sep 19, 2014 at 1:29 PM


Visibility: 2 mi

Pressure: 29.68 "Hg

Humidity: 56%

Dew point: 77 °F

Location of LahoreLocation

Historic Weather in Lahore — Graph

°F

Lahore temperature yesterday

Maximum temperature yesterday: 95 °F (at 11:59 AM)
Minimum temperature yesterday: 81 °F (at 4:55 AM)
Average temperature yesterday: 88 °F

Past Weeks' High & Low Weather Summary

 TemperatureHumidityPressure
High95 °F (Sep 11, 1:25 PM)100% (Sep 5, 8:00 AM)29.86 "Hg (Sep 5, 8:00 AM)
Low72 °F (Sep 15, 5:00 AM)49% (Sep 15, 3:55 PM)29.36 "Hg (Sep 5, 5:00 PM)
Average83 °F76%29.66 "Hg
* Reported Sep 4 12:29 PM — Sep 19 12:59 PM, Lahore, Weather by CustomWeather, © 2014

Note: Actual official high and low records may vary slightly from our data, if they occured in-between our weather recording intervals... More about our weather records

Advertising

Lahore weather history for previous 24 hours

 ConditionsComfort  
Time TempWeatherWind HumidityBarometerVisibility
12:59 PM
Sep 19
95 °FBroken clouds.5 mph56%29.71 "Hg2 mi
12:29 PM93 °FScattered clouds.3 mph56%29.71 "Hg2 mi
11:59 AM93 °FBroken clouds.3 mph56%29.71 "Hg2 mi
11:25 AM93 °FScattered clouds.No wind56%29.74 "Hg2 mi
10:59 AM93 °FScattered clouds.3 mph56%29.74 "Hg3 mi
10:29 AM93 °FPassing clouds.3 mph59%29.74 "Hg3 mi
9:59 AM91 °FPassing clouds.No wind63%29.74 "Hg3 mi
9:29 AM90 °FClear.No wind67%29.74 "Hg2 mi
9:00 AM88 °FClear.No wind70%29.74 "Hg2 mi
8:25 AM86 °FClear.No wind79%29.74 "Hg2 mi
7:55 AM84 °FFog.No wind84%29.74 "Hg1 mi
7:25 AM84 °FFog.No wind84%29.74 "Hg1 mi
6:55 AM82 °FFog.No wind84%29.74 "Hg1 mi
6:25 AM81 °FClear.No wind89%29.71 "Hg2 mi
5:55 AM81 °FClear.No wind89%29.71 "Hg2 mi
5:00 AM81 °FClear.No wind89%29.68 "Hg2 mi
4:25 AM82 °FClear.3 mph84%29.68 "Hg2 mi
3:55 AM82 °FClear.3 mph84%29.68 "Hg2 mi
2:55 AM82 °FClear.No wind84%29.68 "Hg2 mi
2:25 AM84 °FClear.No wind79%29.68 "Hg2 mi
1:55 AM84 °FClear.No wind79%29.68 "Hg2 mi
1:25 AM84 °FClear.No wind79%29.71 "Hg2 mi
12:55 AM84 °FClear.No wind79%29.71 "Hg2 mi
12:25 AM84 °FClear.No wind79%29.71 "Hg2 mi
11:55 PM
Sep 18
86 °FClear.No wind75%29.68 "Hg3 mi
11:25 PM86 °FClear.3 mph75%29.68 "Hg3 mi
10:55 PM86 °FClear.3 mph75%29.68 "Hg3 mi
10:25 PM86 °FClear.3 mph75%29.68 "Hg3 mi
9:55 PM86 °FClear.No wind70%29.68 "Hg3 mi
9:25 PM86 °FClear.No wind70%29.68 "Hg3 mi
8:55 PM88 °FClear.No wind66%29.68 "Hg3 mi
8:25 PM90 °FClear.No wind59%29.68 "Hg3 mi
8:00 PM90 °FClear.3 mph59%29.65 "Hg3 mi
7:00 PM90 °FPassing clouds.No wind59%29.65 "Hg3 mi
6:30 PM91 °FPassing clouds.5 mph56%29.65 "Hg3 mi
6:00 PM93 °FScattered clouds.3 mph53%29.65 "Hg3 mi
5:00 PM95 °FScattered clouds.3 mph50%29.65 "Hg3 mi
4:30 PM95 °FScattered clouds.3 mph50%29.65 "Hg3 mi
3:59 PM95 °FScattered clouds.No wind53%29.65 "Hg3 mi
3:29 PM95 °FScattered clouds.No wind50%29.65 "Hg3 mi
2:59 PM95 °FScattered clouds.No wind53%29.65 "Hg3 mi
2:29 PM95 °FScattered clouds.No wind50%29.65 "Hg3 mi
1:25 PM95 °FScattered clouds.3 mph53%29.68 "Hg4 mi
Weather by CustomWeather, © 2014

See weather overviewHow to use our weather pages